Time,TemperatureF,DewpointF,PressureIn,WindDirection,WindDirectionDegrees,WindSpeedMPH,WindSpeedGustMPH,Humidity,HourlyPrecipIn,Conditions,Clouds,dailyrainin,SoftwareType,DateUTC
2013-10-12 00:01:00,49.3,42.4,29.74,SW,223,11.0,11.0,77,0.00,,,0.00,VWS V12.08,2013-10-12 05:01:00,
2013-10-12 00:06:00,49.4,42.2,29.74,WSW,243,11.0,14.0,76,0.00,,,0.00,VWS V12.08,2013-10-12 05:06:00,
2013-10-12 00:11:00,49.6,42.4,29.75,WSW,253,5.0,14.0,76,0.00,,,0.00,VWS V12.08,2013-10-12 05:11:00,
2013-10-12 00:16:00,49.8,42.2,29.75,SW,232,7.0,17.0,75,0.00,,,0.00,VWS V12.08,2013-10-12 05:16:00,
2013-10-12 00:21:00,50.0,42.0,29.75,South,183,6.0,17.0,74,0.00,,,0.00,VWS V12.08,2013-10-12 05:21:00,
2013-10-12 00:26:00,50.0,42.4,29.75,WSW,249,4.0,17.0,75,0.00,,,0.00,VWS V12.08,2013-10-12 05:26:00,
2013-10-12 00:31:00,49.9,42.3,29.76,SW,230,7.0,7.0,75,0.00,,,0.00,VWS V12.08,2013-10-12 05:31:00,
2013-10-12 00:36:00,49.8,42.2,29.76,SW,226,4.0,12.0,75,0.00,,,0.00,VWS V12.08,2013-10-12 05:36:00,
2013-10-12 00:41:00,49.6,42.0,29.76,WSW,249,4.0,12.0,75,0.00,,,0.00,VWS V12.08,2013-10-12 05:41:00,
2013-10-12 00:46:00,49.6,42.0,29.76,WSW,237,2.0,12.0,75,0.00,,,0.00,VWS V12.08,2013-10-12 05:46:00,
2013-10-12 00:51:00,49.5,41.9,29.76,SW,227,4.0,12.0,75,0.00,,,0.00,VWS V12.08,2013-10-12 05:51:00,
2013-10-12 00:56:00,49.2,41.6,29.77,SW,225,5.0,12.0,75,0.00,,,0.00,VWS V12.08,2013-10-12 05:56:00,
2013-10-12 01:01:00,48.8,41.6,29.77,SW,223,3.0,3.0,76,0.00,,,0.00,VWS V12.08,2013-10-12 06:01:00,
2013-10-12 01:06:00,48.6,41.7,29.77,SSW,211,5.0,10.0,77,0.00,,,0.00,VWS V12.08,2013-10-12 06:06:00,
2013-10-12 01:11:00,48.3,41.4,29.77,SW,219,4.0,10.0,77,0.00,,,0.00,VWS V12.08,2013-10-12 06:11:00,
2013-10-12 01:16:00,48.1,41.2,29.77,SW,225,3.0,10.0,77,0.00,,,0.00,VWS V12.08,2013-10-12 06:16:00,
2013-10-12 01:21:00,47.9,41.4,29.78,WSW,240,3.0,10.0,78,0.00,,,0.00,VWS V12.08,2013-10-12 06:21:00,
2013-10-12 01:26:00,47.6,41.1,29.78,SW,221,4.0,10.0,78,0.00,,,0.00,VWS V12.08,2013-10-12 06:26:00,
2013-10-12 01:31:00,47.5,41.0,29.78,WSW,238,3.0,3.0,78,0.00,,,0.00,VWS V12.08,2013-10-12 06:31:00,
2013-10-12 01:36:00,47.4,40.9,29.78,SW,232,3.0,9.0,78,0.00,,,0.00,VWS V12.08,2013-10-12 06:36:00,
2013-10-12 01:41:00,47.2,40.7,29.78,SW,234,7.0,9.0,78,0.00,,,0.00,VWS V12.08,2013-10-12 06:41:00,
2013-10-12 01:46:00,46.9,40.7,29.78,SW,227,5.0,9.0,79,0.00,,,0.00,VWS V12.08,2013-10-12 06:46:00,
2013-10-12 01:51:00,46.5,40.7,29.78,SW,219,4.0,9.0,80,0.00,,,0.00,VWS V12.08,2013-10-12 06:51:00,
2013-10-12 01:56:00,46.2,40.4,29.79,WSW,241,8.0,9.0,80,0.00,,,0.00,VWS V12.08,2013-10-12 06:56:00,
2013-10-12 02:01:00,46.3,40.8,29.79,WSW,238,5.0,5.0,81,0.00,,,0.00,VWS V12.08,2013-10-12 07:01:00,
2013-10-12 02:06:00,47.6,41.1,29.79,SSW,213,4.0,15.0,78,0.00,,,0.00,VWS V12.08,2013-10-12 07:06:00,
2013-10-12 02:11:00,48.3,41.4,29.79,WSW,256,3.0,15.0,77,0.00,,,0.00,VWS V12.08,2013-10-12 07:11:00,
2013-10-12 02:16:00,48.7,41.5,29.80,WSW,247,6.0,15.0,76,0.00,,,0.00,VWS V12.08,2013-10-12 07:16:00,
2013-10-12 02:21:00,48.7,41.1,29.80,WSW,246,6.0,15.0,75,0.00,,,0.00,VWS V12.08,2013-10-12 07:21:00,
2013-10-12 02:26:00,48.5,41.0,29.80,WSW,252,7.0,15.0,75,0.00,,,0.00,VWS V12.08,2013-10-12 07:26:00,
2013-10-12 02:31:00,48.4,41.2,29.80,WSW,246,8.0,15.0,76,0.00,,,0.00,VWS V12.08,2013-10-12 07:31:00,
2013-10-12 02:36:00,48.2,41.0,29.80,WSW,245,11.0,12.0,76,0.00,,,0.00,VWS V12.08,2013-10-12 07:36:00,
2013-10-12 02:41:00,48.1,40.9,29.80,WSW,249,12.0,12.0,76,0.00,,,0.00,VWS V12.08,2013-10-12 07:41:00,
2013-10-12 02:46:00,48.0,40.8,29.80,WSW,241,7.0,12.0,76,0.00,,,0.00,VWS V12.08,2013-10-12 07:46:00,
2013-10-12 02:51:00,48.0,40.8,29.80,WSW,240,7.0,12.0,76,0.00,,,0.00,VWS V12.08,2013-10-12 07:51:00,
2013-10-12 02:56:00,48.0,40.8,29.80,WSW,244,9.0,12.0,76,0.00,,,0.00,VWS V12.08,2013-10-12 07:56:00,
2013-10-12 03:01:00,48.2,41.0,29.81,WSW,249,10.0,13.0,76,0.00,,,0.00,VWS V12.08,2013-10-12 08:01:00,
2013-10-12 03:06:00,48.5,41.3,29.81,WSW,257,8.0,14.0,76,0.00,,,0.00,VWS V12.08,2013-10-12 08:06:00,
2013-10-12 03:11:00,48.9,41.3,29.81,WSW,246,6.0,14.0,75,0.00,,,0.00,VWS V12.08,2013-10-12 08:11:00,
2013-10-12 03:16:00,49.3,41.4,29.81,WSW,252,7.0,14.0,74,0.00,,,0.00,VWS V12.08,2013-10-12 08:16:00,
2013-10-12 03:21:00,49.4,41.5,29.81,WSW,253,7.0,14.0,74,0.00,,,0.00,VWS V12.08,2013-10-12 08:21:00,
2013-10-12 03:26:00,49.5,41.6,29.82,WSW,249,2.0,14.0,74,0.00,,,0.00,VWS V12.08,2013-10-12 08:26:00,
2013-10-12 03:31:00,49.5,41.6,29.82,WSW,246,14.0,14.0,74,0.00,,,0.00,VWS V12.08,2013-10-12 08:31:00,
2013-10-12 03:36:00,49.7,41.8,29.82,WSW,246,11.0,14.0,74,0.00,,,0.00,VWS V12.08,2013-10-12 08:36:00,
2013-10-12 03:41:00,49.9,41.2,29.82,WSW,246,11.0,18.0,72,0.00,,,0.00,VWS V12.08,2013-10-12 08:41:00,
2013-10-12 03:46:00,50.1,41.4,29.82,WSW,246,11.0,18.0,72,0.00,,,0.00,VWS V12.08,2013-10-12 08:46:00,
2013-10-12 03:51:00,50.3,41.3,29.82,WNW,284,13.0,18.0,71,0.00,,,0.00,VWS V12.08,2013-10-12 08:51:00,
2013-10-12 03:56:00,50.4,41.0,29.83,WSW,246,6.0,19.0,70,0.00,,,0.00,VWS V12.08,2013-10-12 08:56:00,
2013-10-12 04:01:00,50.4,40.6,29.82,West,268,6.0,19.0,69,0.00,,,0.00,VWS V12.08,2013-10-12 09:01:00,
2013-10-12 04:06:00,50.2,40.4,29.83,West,265,4.0,16.0,69,0.00,,,0.00,VWS V12.08,2013-10-12 09:06:00,
2013-10-12 04:11:00,49.9,40.5,29.83,WSW,245,12.0,16.0,70,0.00,,,0.00,VWS V12.08,2013-10-12 09:11:00,
2013-10-12 04:16:00,49.4,40.4,29.83,WSW,238,6.0,16.0,71,0.00,,,0.00,VWS V12.08,2013-10-12 09:16:00,
2013-10-12 04:21:00,48.9,40.3,29.83,WSW,254,9.0,16.0,72,0.00,,,0.00,VWS V12.08,2013-10-12 09:21:00,
2013-10-12 04:26:00,48.4,40.2,29.83,WSW,238,10.0,16.0,73,0.00,,,0.00,VWS V12.08,2013-10-12 09:26:00,
2013-10-12 04:31:00,48.0,40.1,29.84,SW,229,7.0,16.0,74,0.00,,,0.00,VWS V12.08,2013-10-12 09:31:00,
2013-10-12 04:36:00,47.7,40.2,29.84,SW,232,3.0,10.0,75,0.00,,,0.00,VWS V12.08,2013-10-12 09:36:00,
2013-10-12 04:41:00,47.4,39.9,29.84,WSW,241,4.0,10.0,75,0.00,,,0.00,VWS V12.08,2013-10-12 09:41:00,
2013-10-12 04:46:00,47.1,39.9,29.84,West,272,4.0,11.0,76,0.00,,,0.00,VWS V12.08,2013-10-12 09:46:00,
2013-10-12 04:51:00,46.9,39.7,29.85,WSW,250,6.0,12.0,76,0.00,,,0.00,VWS V12.08,2013-10-12 09:51:00,
2013-10-12 04:56:00,46.7,39.5,29.85,WSW,244,1.0,12.0,76,0.00,,,0.00,VWS V12.08,2013-10-12 09:56:00,
2013-10-12 05:01:00,46.5,39.4,29.85,WSW,246,3.0,12.0,76,0.00,,,0.00,VWS V12.08,2013-10-12 10:01:00,
2013-10-12 05:06:00,46.3,39.2,29.85,WSW,240,7.0,10.0,76,0.00,,,0.00,VWS V12.08,2013-10-12 10:06:00,
2013-10-12 05:11:00,46.1,39.0,29.85,SW,232,9.0,12.0,76,0.00,,,0.00,VWS V12.08,2013-10-12 10:11:00,
2013-10-12 05:16:00,45.9,38.8,29.85,WSW,241,6.0,13.0,76,0.00,,,0.00,VWS V12.08,2013-10-12 10:16:00,
2013-10-12 05:21:00,45.9,39.1,29.86,SW,229,7.0,13.0,77,0.00,,,0.00,VWS V12.08,2013-10-12 10:21:00,
2013-10-12 05:26:00,46.0,38.9,29.86,WSW,238,7.0,13.0,76,0.00,,,0.00,VWS V12.08,2013-10-12 10:26:00,
2013-10-12 05:31:00,45.9,38.8,29.86,WSW,249,8.0,9.0,76,0.00,,,0.00,VWS V12.08,2013-10-12 10:31:00,
2013-10-12 05:36:00,45.8,39.0,29.86,WSW,238,9.0,13.0,77,0.00,,,0.00,VWS V12.08,2013-10-12 10:36:00,
2013-10-12 05:41:00,45.8,39.0,29.87,WSW,241,5.0,13.0,77,0.00,,,0.00,VWS V12.08,2013-10-12 10:41:00,
2013-10-12 05:46:00,45.8,39.0,29.87,SW,217,10.0,13.0,77,0.00,,,0.00,VWS V12.08,2013-10-12 10:46:00,
2013-10-12 05:51:00,45.9,38.8,29.87,SW,218,6.0,14.0,76,0.00,,,0.00,VWS V12.08,2013-10-12 10:51:00,
2013-10-12 05:56:00,45.9,38.8,29.87,WSW,241,12.0,14.0,76,0.00,,,0.00,VWS V12.08,2013-10-12 10:56:00,
2013-10-12 06:01:00,45.9,38.8,29.87,West,263,10.0,14.0,76,0.00,,,0.00,VWS V12.08,2013-10-12 11:01:00,
2013-10-12 06:06:00,45.9,38.8,29.87,WSW,244,11.0,17.0,76,0.00,,,0.00,VWS V12.08,2013-10-12 11:06:00,
2013-10-12 06:11:00,45.9,38.8,29.87,WSW,243,9.0,17.0,76,0.00,,,0.00,VWS V12.08,2013-10-12 11:11:00,
2013-10-12 06:16:00,45.8,38.7,29.87,WSW,243,11.0,17.0,76,0.00,,,0.00,VWS V12.08,2013-10-12 11:16:00,
2013-10-12 06:21:00,45.7,38.6,29.87,WSW,248,11.0,17.0,76,0.00,,,0.00,VWS V12.08,2013-10-12 11:21:00,
2013-10-12 06:26:00,45.5,38.4,29.87,West,263,6.0,17.0,76,0.00,,,0.00,VWS V12.08,2013-10-12 11:26:00,
2013-10-12 06:31:00,45.4,38.3,29.87,West,271,9.0,11.0,76,0.00,,,0.00,VWS V12.08,2013-10-12 11:31:00,
2013-10-12 06:36:00,45.3,38.2,29.87,WSW,237,13.0,15.0,76,0.00,,,0.00,VWS V12.08,2013-10-12 11:36:00,
2013-10-12 06:41:00,45.2,38.1,29.88,West,264,6.0,15.0,76,0.00,,,0.00,VWS V12.08,2013-10-12 11:41:00,
2013-10-12 06:46:00,45.1,38.0,29.88,WSW,244,14.0,15.0,76,0.00,,,0.00,VWS V12.08,2013-10-12 11:46:00,
2013-10-12 06:51:00,45.1,38.0,29.88,West,263,11.0,15.0,76,0.00,,,0.00,VWS V12.08,2013-10-12 11:51:00,
2013-10-12 06:56:00,45.0,38.2,29.88,SW,232,10.0,15.0,77,0.00,,,0.00,VWS V12.08,2013-10-12 11:56:00,
2013-10-12 07:01:00,44.9,38.1,29.88,WSW,254,8.0,8.0,77,0.00,,,0.00,VWS V12.08,2013-10-12 12:01:00,
2013-10-12 07:06:00,44.8,38.0,29.89,WSW,248,8.0,13.0,77,0.00,,,0.00,VWS V12.08,2013-10-12 12:06:00,
2013-10-12 07:11:00,44.7,37.9,29.89,WSW,252,11.0,14.0,77,0.00,,,0.00,VWS V12.08,2013-10-12 12:11:00,
2013-10-12 07:16:00,44.6,37.8,29.89,WSW,249,10.0,14.0,77,0.00,,,0.00,VWS V12.08,2013-10-12 12:16:00,
2013-10-12 07:21:00,44.6,37.8,29.89,WSW,249,10.0,14.0,77,0.00,,,0.00,VWS V12.08,2013-10-12 12:21:00,
2013-10-12 07:26:00,44.5,37.8,29.89,WSW,240,7.0,14.0,77,0.00,,,0.00,VWS V12.08,2013-10-12 12:26:00,
2013-10-12 07:31:00,44.5,37.8,29.89,SW,230,10.0,10.0,77,0.00,,,0.00,VWS V12.08,2013-10-12 12:31:00,
2013-10-12 07:36:00,44.5,37.4,29.89,West,259,5.0,13.0,76,0.00,,,0.00,VWS V12.08,2013-10-12 12:36:00,
2013-10-12 07:41:00,44.5,37.4,29.89,WSW,238,11.0,13.0,76,0.00,,,0.00,VWS V12.08,2013-10-12 12:41:00,
2013-10-12 07:46:00,44.5,37.4,29.90,WSW,240,10.0,14.0,76,0.00,,,0.00,VWS V12.08,2013-10-12 12:46:00,
2013-10-12 07:51:00,44.6,37.5,29.90,WSW,243,7.0,14.0,76,0.00,,,0.00,VWS V12.08,2013-10-12 12:51:00,
2013-10-12 07:56:00,44.7,37.3,29.90,WSW,256,14.0,15.0,75,0.00,,,0.00,VWS V12.08,2013-10-12 12:56:00,
2013-10-12 08:01:00,44.7,37.3,29.90,WSW,241,11.0,15.0,75,0.00,,,0.00,VWS V12.08,2013-10-12 13:01:00,
2013-10-12 08:06:00,44.9,37.5,29.91,WSW,246,12.0,15.0,75,0.00,,,0.00,VWS V12.08,2013-10-12 13:06:00,
2013-10-12 08:11:00,45.1,37.3,29.91,WSW,252,10.0,15.0,74,0.00,,,0.00,VWS V12.08,2013-10-12 13:11:00,
2013-10-12 08:16:00,45.3,37.2,29.91,SW,227,11.0,15.0,73,0.00,,,0.00,VWS V12.08,2013-10-12 13:16:00,
2013-10-12 08:21:00,45.6,37.5,29.92,WSW,246,15.0,15.0,73,0.00,,,0.00,VWS V12.08,2013-10-12 13:21:00,
2013-10-12 08:26:00,45.8,37.3,29.92,WSW,244,11.0,15.0,72,0.00,,,0.00,VWS V12.08,2013-10-12 13:26:00,
2013-10-12 08:31:00,46.2,37.3,29.92,SW,229,9.0,9.0,71,0.00,,,0.00,VWS V12.08,2013-10-12 13:31:00,
2013-10-12 08:36:00,46.6,37.3,29.92,SW,230,6.0,17.0,70,0.00,,,0.00,VWS V12.08,2013-10-12 13:36:00,
2013-10-12 08:41:00,47.1,37.5,29.92,West,259,9.0,17.0,69,0.00,,,0.00,VWS V12.08,2013-10-12 13:41:00,
2013-10-12 08:46:00,47.6,37.6,29.93,SW,234,6.0,22.0,68,0.00,,,0.00,VWS V12.08,2013-10-12 13:46:00,
2013-10-12 08:51:00,47.9,37.5,29.93,West,276,8.0,22.0,67,0.00,,,0.00,VWS V12.08,2013-10-12 13:51:00,
2013-10-12 08:56:00,48.0,37.2,29.93,WSW,243,6.0,22.0,66,0.00,,,0.00,VWS V12.08,2013-10-12 13:56:00,
2013-10-12 09:01:00,48.3,37.1,29.93,WSW,254,9.0,11.0,65,0.00,,,0.00,VWS V12.08,2013-10-12 14:01:00,
2013-10-12 09:06:00,48.5,37.3,29.93,NW,307,6.0,17.0,65,0.00,,,0.00,VWS V12.08,2013-10-12 14:06:00,
2013-10-12 09:11:00,48.9,37.3,29.93,West,259,11.0,19.0,64,0.00,,,0.00,VWS V12.08,2013-10-12 14:11:00,
2013-10-12 09:16:00,49.2,37.2,29.93,SW,218,7.0,19.0,63,0.00,,,0.00,VWS V12.08,2013-10-12 14:16:00,
2013-10-12 09:21:00,49.6,36.7,29.94,West,277,13.0,19.0,61,0.00,,,0.00,VWS V12.08,2013-10-12 14:21:00,
2013-10-12 09:26:00,50.0,37.1,29.94,West,259,7.0,19.0,61,0.00,,,0.00,VWS V12.08,2013-10-12 14:26:00,
2013-10-12 09:31:00,50.4,36.6,29.94,SW,234,12.0,15.0,59,0.00,,,0.00,VWS V12.08,2013-10-12 14:31:00,
2013-10-12 09:36:00,50.8,36.6,29.94,West,263,6.0,20.0,58,0.00,,,0.00,VWS V12.08,2013-10-12 14:36:00,
2013-10-12 09:41:00,51.2,36.5,29.95,WSW,256,13.0,20.0,57,0.00,,,0.00,VWS V12.08,2013-10-12 14:41:00,
2013-10-12 09:46:00,51.4,36.2,29.95,West,261,11.0,23.0,56,0.00,,,0.00,VWS V12.08,2013-10-12 14:46:00,
2013-10-12 09:51:00,51.6,36.0,29.95,WSW,246,5.0,23.0,55,0.00,,,0.00,VWS V12.08,2013-10-12 14:51:00,
2013-10-12 09:56:00,52.0,35.9,29.95,WSW,256,12.0,25.0,54,0.00,,,0.00,VWS V12.08,2013-10-12 14:56:00,
2013-10-12 10:01:00,52.2,36.1,29.96,West,273,13.0,16.0,54,0.00,,,0.00,VWS V12.08,2013-10-12 15:01:00,
2013-10-12 10:06:00,52.3,35.7,29.96,West,275,5.0,22.0,53,0.00,,,0.00,VWS V12.08,2013-10-12 15:06:00,
2013-10-12 10:11:00,52.5,35.9,29.96,West,277,6.0,22.0,53,0.00,,,0.00,VWS V12.08,2013-10-12 15:11:00,
2013-10-12 10:16:00,53.1,36.0,29.96,WNW,299,5.0,22.0,52,0.00,,,0.00,VWS V12.08,2013-10-12 15:16:00,
2013-10-12 10:21:00,53.1,35.5,29.96,West,281,15.0,30.0,51,0.00,,,0.00,VWS V12.08,2013-10-12 15:21:00,
2013-10-12 10:26:00,53.3,35.7,29.97,West,268,11.0,30.0,51,0.00,,,0.00,VWS V12.08,2013-10-12 15:26:00,
2013-10-12 10:31:00,53.5,35.3,29.97,West,267,8.0,9.0,50,0.00,,,0.00,VWS V12.08,2013-10-12 15:31:00,
2013-10-12 10:36:00,53.9,35.2,29.97,WSW,248,10.0,26.0,49,0.00,,,0.00,VWS V12.08,2013-10-12 15:36:00,
2013-10-12 10:41:00,54.1,35.4,29.97,WSW,257,22.0,28.0,49,0.00,,,0.00,VWS V12.08,2013-10-12 15:41:00,
2013-10-12 10:46:00,54.0,34.8,29.97,West,276,18.0,33.0,48,0.00,,,0.00,VWS V12.08,2013-10-12 15:46:00,
2013-10-12 10:51:00,54.3,35.6,29.97,SSW,203,12.0,33.0,49,0.00,,,0.00,VWS V12.08,2013-10-12 15:51:00,
2013-10-12 10:56:00,54.6,34.8,29.98,WNW,288,18.0,33.0,47,0.00,,,0.00,VWS V12.08,2013-10-12 15:56:00,
2013-10-12 11:01:00,54.6,35.3,29.98,WNW,284,24.0,24.0,48,0.00,,,0.00,VWS V12.08,2013-10-12 16:01:00,
2013-10-12 11:06:00,54.6,35.3,29.98,WSW,245,19.0,28.0,48,0.00,,,0.00,VWS V12.08,2013-10-12 16:06:00,
2013-10-12 11:11:00,54.9,35.6,29.99,West,276,13.0,28.0,48,0.00,,,0.00,VWS V12.08,2013-10-12 16:11:00,
2013-10-12 11:16:00,55.1,35.8,29.99,WSW,244,11.0,28.0,48,0.00,,,0.00,VWS V12.08,2013-10-12 16:16:00,
2013-10-12 11:21:00,55.2,35.3,29.99,West,275,27.0,28.0,47,0.00,,,0.00,VWS V12.08,2013-10-12 16:21:00,
2013-10-12 11:26:00,55.0,35.2,29.99,WNW,289,11.0,28.0,47,0.00,,,0.00,VWS V12.08,2013-10-12 16:26:00,
2013-10-12 11:31:00,55.2,35.3,30.00,West,269,17.0,17.0,47,0.00,,,0.00,VWS V12.08,2013-10-12 16:31:00,
2013-10-12 11:36:00,55.6,35.7,30.00,West,276,22.0,23.0,47,0.00,,,0.00,VWS V12.08,2013-10-12 16:36:00,
2013-10-12 11:41:00,55.7,35.3,30.00,West,271,10.0,23.0,46,0.00,,,0.00,VWS V12.08,2013-10-12 16:41:00,
2013-10-12 11:46:00,55.8,35.3,30.00,West,279,22.0,27.0,46,0.00,,,0.00,VWS V12.08,2013-10-12 16:46:00,
2013-10-12 11:51:00,55.6,35.2,30.01,West,275,16.0,28.0,46,0.00,,,0.00,VWS V12.08,2013-10-12 16:51:00,
2013-10-12 11:56:00,55.6,34.6,30.00,WNW,296,28.0,28.0,45,0.00,,,0.00,VWS V12.08,2013-10-12 16:56:00,
2013-10-12 12:01:00,56.2,35.2,30.01,West,263,19.0,19.0,45,0.00,,,0.00,VWS V12.08,2013-10-12 17:01:00,
2013-10-12 12:06:00,56.2,32.8,30.01,West,275,20.0,32.0,41,0.00,,,0.00,VWS V12.08,2013-10-12 17:06:00,
2013-10-12 12:11:00,55.9,33.2,30.01,WSW,250,16.0,32.0,42,0.00,,,0.00,VWS V12.08,2013-10-12 17:11:00,
2013-10-12 12:16:00,56.1,33.3,30.01,WSW,252,11.0,32.0,42,0.00,,,0.00,VWS V12.08,2013-10-12 17:16:00,
2013-10-12 12:21:00,56.3,33.5,30.01,West,276,15.0,32.0,42,0.00,,,0.00,VWS V12.08,2013-10-12 17:21:00,
2013-10-12 12:26:00,56.0,32.7,30.01,West,260,23.0,32.0,41,0.00,,,0.00,VWS V12.08,2013-10-12 17:26:00,
2013-10-12 12:31:00,56.4,33.6,30.01,WSW,252,18.0,21.0,42,0.00,,,0.00,VWS V12.08,2013-10-12 17:31:00,
2013-10-12 12:36:00,57.1,33.0,30.01,WNW,284,12.0,24.0,40,0.00,,,0.00,VWS V12.08,2013-10-12 17:36:00,
2013-10-12 12:41:00,57.6,32.8,30.01,WSW,254,13.0,24.0,39,0.00,,,0.00,VWS V12.08,2013-10-12 17:41:00,
2013-10-12 12:46:00,58.2,33.4,30.01,WNW,283,16.0,24.0,39,0.00,,,0.00,VWS V12.08,2013-10-12 17:46:00,
2013-10-12 12:51:00,58.1,33.9,30.02,WNW,298,14.0,24.0,40,0.00,,,0.00,VWS V12.08,2013-10-12 17:51:00,
2013-10-12 12:56:00,58.1,32.7,30.02,WNW,296,11.0,26.0,38,0.00,,,0.00,VWS V12.08,2013-10-12 17:56:00,
2013-10-12 13:01:00,58.3,32.2,30.02,WNW,298,17.0,17.0,37,0.00,,,0.00,VWS V12.08,2013-10-12 18:01:00,
2013-10-12 13:06:00,58.4,32.2,30.02,West,281,6.0,19.0,37,0.00,,,0.00,VWS V12.08,2013-10-12 18:06:00,
2013-10-12 13:11:00,58.4,30.9,30.02,WNW,285,20.0,25.0,35,0.00,,,0.00,VWS V12.08,2013-10-12 18:11:00,
2013-10-12 13:16:00,58.4,32.9,30.02,WSW,240,11.0,25.0,38,0.00,,,0.00,VWS V12.08,2013-10-12 18:16:00,
2013-10-12 13:21:00,58.4,30.9,30.02,West,277,25.0,30.0,35,0.00,,,0.00,VWS V12.08,2013-10-12 18:21:00,
2013-10-12 13:26:00,58.4,30.9,30.02,WNW,288,20.0,30.0,35,0.00,,,0.00,VWS V12.08,2013-10-12 18:26:00,
2013-10-12 13:31:00,58.3,30.8,30.02,West,259,13.0,21.0,35,0.00,,,0.00,VWS V12.08,2013-10-12 18:31:00,
2013-10-12 13:36:00,58.3,30.1,30.02,WSW,240,13.0,26.0,34,0.00,,,0.00,VWS V12.08,2013-10-12 18:36:00,
2013-10-12 13:41:00,58.9,31.3,30.02,West,268,16.0,26.0,35,0.00,,,0.00,VWS V12.08,2013-10-12 18:41:00,
2013-10-12 13:46:00,59.0,30.7,30.02,West,280,21.0,26.0,34,0.00,,,0.00,VWS V12.08,2013-10-12 18:46:00,
2013-10-12 13:51:00,59.0,30.0,30.02,West,275,19.0,26.0,33,0.00,,,0.00,VWS V12.08,2013-10-12 18:51:00,
2013-10-12 13:56:00,58.9,28.3,30.02,West,277,16.0,28.0,31,0.00,,,0.00,VWS V12.08,2013-10-12 18:56:00,
2013-10-12 14:01:00,59.0,29.2,30.02,West,268,12.0,28.0,32,0.00,,,0.00,VWS V12.08,2013-10-12 19:01:00,
2013-10-12 14:06:00,59.2,30.1,30.02,West,273,23.0,29.0,33,0.00,,,0.00,VWS V12.08,2013-10-12 19:06:00,
2013-10-12 14:11:00,59.4,29.6,30.03,WNW,295,19.0,32.0,32,0.00,,,0.00,VWS V12.08,2013-10-12 19:11:00,
2013-10-12 14:16:00,59.3,27.9,30.02,West,272,19.0,32.0,30,0.00,,,0.00,VWS V12.08,2013-10-12 19:16:00,
2013-10-12 14:21:00,59.7,28.2,30.03,WSW,250,10.0,32.0,30,0.00,,,0.00,VWS V12.08,2013-10-12 19:21:00,
2013-10-12 14:26:00,59.7,28.2,30.02,WNW,287,25.0,32.0,30,0.00,,,0.00,VWS V12.08,2013-10-12 19:26:00,
2013-10-12 14:31:00,59.3,27.9,30.03,West,265,14.0,32.0,30,0.00,,,0.00,VWS V12.08,2013-10-12 19:31:00,
2013-10-12 14:36:00,59.6,27.3,30.03,WSW,249,15.0,26.0,29,0.00,,,0.00,VWS V12.08,2013-10-12 19:36:00,
2013-10-12 14:41:00,59.7,28.2,30.03,West,275,15.0,26.0,30,0.00,,,0.00,VWS V12.08,2013-10-12 19:41:00,
2013-10-12 14:46:00,59.6,27.3,30.03,West,268,20.0,26.0,29,0.00,,,0.00,VWS V12.08,2013-10-12 19:46:00,
2013-10-12 14:51:00,59.8,26.6,30.04,SSW,200,10.0,28.0,28,0.00,,,0.00,VWS V12.08,2013-10-12 19:51:00,
2013-10-12 14:56:00,59.8,27.5,30.04,West,279,14.0,28.0,29,0.00,,,0.00,VWS V12.08,2013-10-12 19:56:00,
2013-10-12 15:01:00,59.9,28.4,30.03,West,273,22.0,28.0,30,0.00,,,0.00,VWS V12.08,2013-10-12 20:01:00,
2013-10-12 15:06:00,59.9,27.6,30.04,West,272,11.0,27.0,29,0.00,,,0.00,VWS V12.08,2013-10-12 20:06:00,
2013-10-12 15:11:00,59.9,26.7,30.04,West,273,24.0,27.0,28,0.00,,,0.00,VWS V12.08,2013-10-12 20:11:00,
2013-10-12 15:16:00,60.1,26.0,30.04,WSW,248,24.0,29.0,27,0.00,,,0.00,VWS V12.08,2013-10-12 20:16:00,
2013-10-12 15:21:00,60.1,26.9,30.04,West,272,19.0,29.0,28,0.00,,,0.00,VWS V12.08,2013-10-12 20:21:00,
2013-10-12 15:26:00,60.3,27.1,30.04,West,280,12.0,29.0,28,0.00,,,0.00,VWS V12.08,2013-10-12 20:26:00,
2013-10-12 15:31:00,60.0,27.7,30.04,West,277,9.0,29.0,29,0.00,,,0.00,VWS V12.08,2013-10-12 20:31:00,
2013-10-12 15:36:00,60.2,27.0,30.04,West,275,11.0,22.0,28,0.00,,,0.00,VWS V12.08,2013-10-12 20:36:00,
2013-10-12 15:41:00,60.4,26.3,30.04,West,272,23.0,30.0,27,0.00,,,0.00,VWS V12.08,2013-10-12 20:41:00,
2013-10-12 15:46:00,60.3,27.1,30.05,West,265,10.0,30.0,28,0.00,,,0.00,VWS V12.08,2013-10-12 20:46:00,
2013-10-12 15:51:00,60.5,27.3,30.05,West,268,19.0,30.0,28,0.00,,,0.00,VWS V12.08,2013-10-12 20:51:00,
2013-10-12 15:56:00,60.4,26.3,30.05,West,268,13.0,30.0,27,0.00,,,0.00,VWS V12.08,2013-10-12 20:56:00,
2013-10-12 16:01:00,60.5,26.4,30.05,West,265,15.0,30.0,27,0.00,,,0.00,VWS V12.08,2013-10-12 21:01:00,
2013-10-12 16:06:00,60.3,27.1,30.05,WNW,282,17.0,24.0,28,0.00,,,0.00,VWS V12.08,2013-10-12 21:06:00,
2013-10-12 16:11:00,60.6,25.5,30.05,West,265,13.0,28.0,26,0.00,,,0.00,VWS V12.08,2013-10-12 21:11:00,
2013-10-12 16:16:00,60.4,25.4,30.06,WSW,246,14.0,28.0,26,0.00,,,0.00,VWS V12.08,2013-10-12 21:16:00,
2013-10-12 16:21:00,60.4,26.3,30.06,WNW,283,10.0,28.0,27,0.00,,,0.00,VWS V12.08,2013-10-12 21:21:00,
2013-10-12 16:26:00,60.4,25.4,30.05,WSW,256,23.0,28.0,26,0.00,,,0.00,VWS V12.08,2013-10-12 21:26:00,
2013-10-12 16:31:00,60.4,26.3,30.06,NW,323,7.0,28.0,27,0.00,,,0.00,VWS V12.08,2013-10-12 21:31:00,
2013-10-12 16:36:00,60.4,26.3,30.06,WSW,241,18.0,23.0,27,0.00,,,0.00,VWS V12.08,2013-10-12 21:36:00,
2013-10-12 16:41:00,60.4,28.0,30.06,WNW,287,9.0,23.0,29,0.00,,,0.00,VWS V12.08,2013-10-12 21:41:00,
2013-10-12 16:46:00,60.4,28.0,30.06,West,267,9.0,23.0,29,0.00,,,0.00,VWS V12.08,2013-10-12 21:46:00,
2013-10-12 16:51:00,60.5,27.3,30.06,West,275,14.0,23.0,28,0.00,,,0.00,VWS V12.08,2013-10-12 21:51:00,
2013-10-12 16:56:00,60.3,26.2,30.07,West,275,10.0,23.0,27,0.00,,,0.00,VWS V12.08,2013-10-12 21:56:00,
2013-10-12 17:01:00,60.2,25.2,30.07,West,276,11.0,25.0,26,0.00,,,0.00,VWS V12.08,2013-10-12 22:01:00,
2013-10-12 17:06:00,60.1,25.1,30.07,WNW,288,14.0,32.0,26,0.00,,,0.00,VWS V12.08,2013-10-12 22:06:00,
2013-10-12 17:11:00,59.9,25.0,30.08,WNW,284,14.0,32.0,26,0.00,,,0.00,VWS V12.08,2013-10-12 22:11:00,
2013-10-12 17:16:00,59.9,25.9,30.08,West,273,11.0,32.0,27,0.00,,,0.00,VWS V12.08,2013-10-12 22:16:00,
2013-10-12 17:21:00,60.0,26.0,30.08,WSW,241,17.0,32.0,27,0.00,,,0.00,VWS V12.08,2013-10-12 22:21:00,
2013-10-12 17:26:00,59.9,25.0,30.08,West,263,13.0,32.0,26,0.00,,,0.00,VWS V12.08,2013-10-12 22:26:00,
2013-10-12 17:31:00,59.7,25.7,30.08,WNW,291,16.0,32.0,27,0.00,,,0.00,VWS V12.08,2013-10-12 22:31:00,
2013-10-12 17:36:00,59.6,25.6,30.08,West,281,5.0,18.0,27,0.00,,,0.00,VWS V12.08,2013-10-12 22:36:00,
2013-10-12 17:41:00,59.5,25.5,30.08,West,263,13.0,18.0,27,0.00,,,0.00,VWS V12.08,2013-10-12 22:41:00,
2013-10-12 17:46:00,59.5,26.4,30.08,WNW,296,7.0,18.0,28,0.00,,,0.00,VWS V12.08,2013-10-12 22:46:00,
2013-10-12 17:51:00,59.3,26.2,30.09,WNW,283,12.0,18.0,28,0.00,,,0.00,VWS V12.08,2013-10-12 22:51:00,
2013-10-12 17:56:00,59.1,26.0,30.09,WNW,282,5.0,18.0,28,0.00,,,0.00,VWS V12.08,2013-10-12 22:56:00,
2013-10-12 18:01:00,59.1,26.9,30.09,West,279,11.0,18.0,29,0.00,,,0.00,VWS V12.08,2013-10-12 23:01:00,
2013-10-12 18:06:00,58.9,26.7,30.09,WNW,286,13.0,16.0,29,0.00,,,0.00,VWS V12.08,2013-10-12 23:06:00,
2013-10-12 18:10:00,58.6,26.5,30.10,WNW,291,7.0,16.0,29,0.00,,,0.00,VWS V12.08,2013-10-12 23:10:00,
2013-10-12 18:15:00,58.3,26.2,30.10,WNW,294,8.0,16.0,29,0.00,,,0.00,VWS V12.08,2013-10-12 23:15:00,
2013-10-12 18:20:00,58.1,26.9,30.10,NW,307,5.0,16.0,30,0.00,,,0.00,VWS V12.08,2013-10-12 23:20:00,
2013-10-12 18:25:00,57.8,26.6,30.11,West,277,7.0,16.0,30,0.00,,,0.00,VWS V12.08,2013-10-12 23:25:00,
2013-10-12 18:30:00,57.5,27.1,30.11,West,279,5.0,16.0,31,0.00,,,0.00,VWS V12.08,2013-10-12 23:30:00,
2013-10-12 18:35:00,57.1,27.5,30.11,West,275,6.0,11.0,32,0.00,,,0.00,VWS V12.08,2013-10-12 23:35:00,
2013-10-12 18:40:00,56.6,27.9,30.12,WNW,290,4.0,11.0,33,0.00,,,0.00,VWS V12.08,2013-10-12 23:40:00,
2013-10-12 18:45:00,56.1,27.4,30.12,WNW,286,9.0,11.0,33,0.00,,,0.00,VWS V12.08,2013-10-12 23:45:00,
2013-10-12 18:50:00,55.7,27.8,30.12,WNW,302,5.0,11.0,34,0.00,,,0.00,VWS V12.08,2013-10-12 23:50:00,
2013-10-12 18:55:00,55.2,28.0,30.13,NW,309,4.0,11.0,35,0.00,,,0.00,VWS V12.08,2013-10-12 23:55:00,
2013-10-12 19:00:00,54.7,27.6,30.13,West,264,3.0,11.0,35,0.00,,,0.00,VWS V12.08,2013-10-13 00:00:00,
2013-10-12 19:05:00,54.4,27.3,30.13,WNW,284,4.0,7.0,35,0.00,,,0.00,VWS V12.08,2013-10-13 00:05:00,
2013-10-12 19:10:00,54.0,27.7,30.13,WNW,291,2.0,7.0,36,0.00,,,0.00,VWS V12.08,2013-10-13 00:10:00,
2013-10-12 19:15:00,53.6,28.0,30.14,WNW,283,2.0,7.0,37,0.00,,,0.00,VWS V12.08,2013-10-13 00:15:00,
2013-10-12 19:20:00,52.9,28.0,30.14,WNW,292,2.0,7.0,38,0.00,,,0.00,VWS V12.08,2013-10-13 00:20:00,
2013-10-12 19:25:00,52.3,28.1,30.15,West,276,4.0,7.0,39,0.00,,,0.00,VWS V12.08,2013-10-13 00:25:00,
2013-10-12 19:30:00,52.0,27.8,30.15,West,280,3.0,7.0,39,0.00,,,0.00,VWS V12.08,2013-10-13 00:30:00,
2013-10-12 19:35:00,51.7,27.6,30.15,West,263,3.0,6.0,39,0.00,,,0.00,VWS V12.08,2013-10-13 00:35:00,
2013-10-12 19:40:00,51.5,28.0,30.15,WNW,282,3.0,7.0,40,0.00,,,0.00,VWS V12.08,2013-10-13 00:40:00,
2013-10-12 19:45:00,51.2,27.7,30.16,West,280,4.0,7.0,40,0.00,,,0.00,VWS V12.08,2013-10-13 00:45:00,
2013-10-12 19:50:00,50.8,28.0,30.16,West,279,1.0,7.0,41,0.00,,,0.00,VWS V12.08,2013-10-13 00:50:00,
2013-10-12 19:55:00,50.5,27.7,30.16,West,261,2.0,7.0,41,0.00,,,0.00,VWS V12.08,2013-10-13 00:55:00,
2013-10-12 20:00:00,50.2,28.0,30.17,WNW,295,3.0,7.0,42,0.00,,,0.00,VWS V12.08,2013-10-13 01:00:00,
2013-10-12 20:05:00,49.9,27.7,30.17,WNW,290,3.0,4.0,42,0.00,,,0.00,VWS V12.08,2013-10-13 01:05:00,
2013-10-12 20:10:00,49.7,28.1,30.17,West,280,3.0,5.0,43,0.00,,,0.00,VWS V12.08,2013-10-13 01:10:00,
2013-10-12 20:15:00,49.6,28.0,30.17,WNW,282,2.0,5.0,43,0.00,,,0.00,VWS V12.08,2013-10-13 01:15:00,
2013-10-12 20:20:00,49.5,28.5,30.17,WNW,296,2.0,5.0,44,0.00,,,0.00,VWS V12.08,2013-10-13 01:20:00,
2013-10-12 20:25:00,49.3,28.3,30.17,West,279,1.0,5.0,44,0.00,,,0.00,VWS V12.08,2013-10-13 01:25:00,
2013-10-12 20:30:00,48.8,28.4,30.17,WNW,282,1.0,5.0,45,0.00,,,0.00,VWS V12.08,2013-10-13 01:30:00,
2013-10-12 20:35:00,48.3,28.0,30.17,WNW,288,2.0,3.0,45,0.00,,,0.00,VWS V12.08,2013-10-13 01:35:00,
2013-10-12 20:40:00,47.8,28.0,30.18,West,277,1.0,3.0,46,0.00,,,0.00,VWS V12.08,2013-10-13 01:40:00,
2013-10-12 20:45:00,47.5,28.3,30.17,WNW,288,2.0,3.0,47,0.00,,,0.00,VWS V12.08,2013-10-13 01:45:00,
2013-10-12 20:50:00,47.3,28.1,30.17,WNW,290,2.0,4.0,47,0.00,,,0.00,VWS V12.08,2013-10-13 01:50:00,
2013-10-12 20:55:00,47.2,28.5,30.18,WNW,286,1.0,4.0,48,0.00,,,0.00,VWS V12.08,2013-10-13 01:55:00,
2013-10-12 20:58:00,47.0,28.3,30.18,WNW,284,1.0,4.0,48,0.00,,,0.00,VWS V12.08,2013-10-13 01:58:00,
2013-10-12 21:03:00,46.8,28.7,30.18,WNW,288,1.0,3.0,49,0.00,,,0.00,VWS V12.08,2013-10-13 02:03:00,
2013-10-12 21:08:00,46.7,28.6,30.18,West,277,1.0,3.0,49,0.00,,,0.00,VWS V12.08,2013-10-13 02:08:00,
2013-10-12 21:13:00,46.6,28.5,30.18,WNW,286,2.0,3.0,49,0.00,,,0.00,VWS V12.08,2013-10-13 02:13:00,
2013-10-12 21:18:00,46.6,28.5,30.18,WNW,288,1.0,3.0,49,0.00,,,0.00,VWS V12.08,2013-10-13 02:18:00,
2013-10-12 21:23:00,46.7,29.1,30.19,WNW,296,2.0,3.0,50,0.00,,,0.00,VWS V12.08,2013-10-13 02:23:00,
2013-10-12 21:28:00,46.8,29.2,30.19,WNW,292,2.0,3.0,50,0.00,,,0.00,VWS V12.08,2013-10-13 02:28:00,
2013-10-12 21:33:00,46.7,29.1,30.19,West,281,2.0,2.0,50,0.00,,,0.00,VWS V12.08,2013-10-13 02:33:00,
2013-10-12 21:38:00,46.6,29.0,30.19,WNW,288,2.0,3.0,50,0.00,,,0.00,VWS V12.08,2013-10-13 02:38:00,
2013-10-12 21:43:00,46.5,28.9,30.20,West,280,2.0,3.0,50,0.00,,,0.00,VWS V12.08,2013-10-13 02:43:00,
2013-10-12 21:48:00,46.4,28.8,30.20,West,280,3.0,4.0,50,0.00,,,0.00,VWS V12.08,2013-10-13 02:48:00,
2013-10-12 21:53:00,46.3,29.2,30.20,WNW,287,1.0,4.0,51,0.00,,,0.00,VWS V12.08,2013-10-13 02:53:00,
2013-10-12 21:58:00,46.1,29.0,30.20,WNW,286,2.0,5.0,51,0.00,,,0.00,VWS V12.08,2013-10-13 02:58:00,
2013-10-12 22:03:00,45.9,28.8,30.20,West,260,1.0,3.0,51,0.00,,,0.00,VWS V12.08,2013-10-13 03:03:00,
2013-10-12 22:08:00,45.7,29.1,30.21,West,281,3.0,3.0,52,0.00,,,0.00,VWS V12.08,2013-10-13 03:08:00,
2013-10-12 22:13:00,45.4,28.8,30.21,West,267,1.0,4.0,52,0.00,,,0.00,VWS V12.08,2013-10-13 03:13:00,
2013-10-12 22:18:00,45.1,29.0,30.21,West,273,2.0,4.0,53,0.00,,,0.00,VWS V12.08,2013-10-13 03:18:00,
2013-10-12 22:23:00,44.9,28.8,30.22,WNW,286,3.0,4.0,53,0.00,,,0.00,VWS V12.08,2013-10-13 03:23:00,
2013-10-12 22:28:00,44.9,28.8,30.22,West,264,2.0,5.0,53,0.00,,,0.00,VWS V12.08,2013-10-13 03:28:00,
2013-10-12 22:33:00,44.7,28.6,30.22,West,275,4.0,5.0,53,0.00,,,0.00,VWS V12.08,2013-10-13 03:33:00,
2013-10-12 22:38:00,44.4,28.8,30.22,WNW,283,4.0,5.0,54,0.00,,,0.00,VWS V12.08,2013-10-13 03:38:00,
2013-10-12 22:43:00,44.1,29.0,30.23,WNW,282,5.0,6.0,55,0.00,,,0.00,VWS V12.08,2013-10-13 03:43:00,
2013-10-12 22:48:00,44.1,29.0,30.23,WNW,293,4.0,6.0,55,0.00,,,0.00,VWS V12.08,2013-10-13 03:48:00,
2013-10-12 22:53:00,44.1,29.4,30.23,WNW,290,2.0,6.0,56,0.00,,,0.00,VWS V12.08,2013-10-13 03:53:00,
2013-10-12 22:58:00,44.1,29.4,30.23,West,281,2.0,6.0,56,0.00,,,0.00,VWS V12.08,2013-10-13 03:58:00,
2013-10-12 23:01:00,44.1,29.4,30.23,WNW,286,3.0,6.0,56,0.00,,,0.00,VWS V12.08,2013-10-13 04:01:00,
2013-10-12 23:06:00,43.9,29.2,30.23,WNW,283,3.0,3.0,56,0.00,,,0.00,VWS V12.08,2013-10-13 04:06:00,
2013-10-12 23:11:00,43.9,29.7,30.23,West,281,3.0,4.0,57,0.00,,,0.00,VWS V12.08,2013-10-13 04:11:00,
2013-10-12 23:16:00,43.7,29.5,30.24,West,275,2.0,4.0,57,0.00,,,0.00,VWS V12.08,2013-10-13 04:16:00,
2013-10-12 23:21:00,43.7,29.5,30.24,WNW,286,3.0,4.0,57,0.00,,,0.00,VWS V12.08,2013-10-13 04:21:00,
2013-10-12 23:26:00,43.6,29.4,30.24,WNW,286,3.0,4.0,57,0.00,,,0.00,VWS V12.08,2013-10-13 04:26:00,
2013-10-12 23:31:00,43.5,29.3,30.24,WNW,287,3.0,3.0,57,0.00,,,0.00,VWS V12.08,2013-10-13 04:31:00,
2013-10-12 23:36:00,43.3,29.5,30.24,West,280,3.0,5.0,58,0.00,,,0.00,VWS V12.08,2013-10-13 04:36:00,
2013-10-12 23:41:00,43.2,29.4,30.25,West,276,2.0,5.0,58,0.00,,,0.00,VWS V12.08,2013-10-13 04:41:00,
2013-10-12 23:46:00,43.5,29.7,30.25,WNW,296,2.0,5.0,58,0.00,,,0.00,VWS V12.08,2013-10-13 04:46:00,
2013-10-12 23:51:00,43.5,29.7,30.25,WNW,282,4.0,5.0,58,0.00,,,0.00,VWS V12.08,2013-10-13 04:51:00,
2013-10-12 23:56:00,43.3,29.5,30.25,WNW,291,3.0,5.0,58,0.00,,,0.00,VWS V12.08,2013-10-13 04:56:00,